Regional Weather Roundup
Issued by NWS

Home | Current Version | Previous Version | Graphics & Text | Print | Product List | Glossary On
Versions: 1 2 3 4 5 6 7 8 9 10 11 12 13 14 15 16 17 18 19 20 21 22 23 24 25 26 27 28 29 30 31 32 33 34 35 36 37 38 39 40 41 42 43 44 45 46 47 48 49 50
000
ASUS45 KSLC 282010
RWRUT

UTAH REGIONAL WEATHER ROUNDUP
NATIONAL WEATHER SERVICE SALT LAKE CITY UT
100 PM MST FRI NOV 28 2014

UTZ001>011-023>025-282100-

NORTHERN UTAH

CITY           SKY/WX    TMP DP  RH WIND       PRES   REMARKS
BRIGHAM CITY   PTSUNNY   57  23  26 S13G18    29.93F
HILL AFB       PTSUNNY   60  20  21 S13       29.93F
LOGAN          SUNNY     56  30  37 N10       29.91F
OGDEN          PTSUNNY   60  19  20 S9        29.92F
PROVO AIRPORT  PTSUNNY   52  30  43 CALM      29.99F
SALT LAKE CITY PTSUNNY   65  11  12 S18       29.91F
VERNAL         MOSUNNY   47  23  38 E3        30.04F
WENDOVER       MOSUNNY   50  21  32 NE9       29.92F
HEBER CITY     PTSUNNY   61  12  15 SW13      29.98F
WEST JORDAN    SUNNY     61  28  29 S23       29.94F

$$

UTZ012>022-026-027-282100-

SOUTHERN/CENTRAL UTAH

CITY           SKY/WX    TMP DP  RH WIND       PRES   REMARKS
BLANDING       SUNNY     51  21  30 SE5       30.23F
BRYCE CANYON   SUNNY     52  15  23 S8        30.17F
CEDAR CITY     SUNNY     63  11  13 SW17G24   30.06F
DELTA          MOSUNNY   61  17  18 SW16      29.98F
MILFORD        SUNNY     62  14  15 S21       30.03F
MOAB/CYNLANDS  SUNNY     50  24  36 N5        30.09F
PRICE          MOSUNNY   47  21  35 SE7       30.11F
ST GEORGE      MOCLDY    54  19  26 CALM      30.08F
KANAB          SUNNY     63  14  15 S7        30.13F

$$

REGIONAL REPORTS     COLORADO/ARIZONA

CITY           SKY/WX    TMP DP  RH WIND       PRES   REMARKS
CRAIG, CO      PTSUNNY   50  25  37 NE7       30.03F
GRAND JUNCTION MOSUNNY   46  26  45 NW6       30.10F
RIFLE          SUNNY     47  24  40 CALM      30.10F
MONTROSE       MOSUNNY   56  19  23 CALM      30.11F
CORTEZ         SUNNY     56  22  26 SW7       30.16F
PAGE, AZ       SUNNY     53  19  26 N5        30.12F
GRAND CANYON   SUNNY     63   7  11 SW12G21   30.20F
KINGMAN        SUNNY     73  16  11 SW14      30.06F
FLAGSTAFF      SUNNY     65   9  11 SW13      30.21F

$$

REGIONAL REPORTS    NEVADA/IDAHO/WYOMING

CITY           SKY/WX    TMP DP  RH WIND       PRES   REMARKS
LAS VEGAS, NV  MOSUNNY   63  19  18 S3        29.98F
ELY            SUNNY     60   9  13 S6        30.03F
ELKO           SUNNY     59  26  28 SW3       29.91F
POCATELLO, ID  SUNNY     59  20  22 S16G24    29.84F
BURLEY         CLOUDY    57  20  23 S17G25    29.82F
EVANSTON, WY   PTSUNNY   51  21  30 SW15      29.98F
ROCK SPRINGS   PTSUNNY   53  16  23 NW9       29.97F

$$



USA.gov is the U.S. government's official web portal to all federal, state and local government web resources and services.